KM5RF Weather Reports


Display with metric or nautical units.
time (UTC)temp
F
wind
direction
speed
MPH
gust
MPH
rain 1hr
in
rain 24hr
in
rain mn
in
humidity
%
barometer
mb
20260503200016 78 164 7.0 14.0 0.00 0.00 0.00 43 1018.8
20260503194509 78 197 5.0 14.0 0.00 0.00 0.00 46 1019.1
20260503193012 78 216 5.0 17.0 0.00 0.00 0.00 49 1019.4
20260503191516 78 209 7.0 15.0 0.00 0.00 0.00 47 1019.7
20260503190016 77 190 6.0 15.0 0.00 0.00 0.00 47 1019.8
20260503184518 78 227 6.0 14.0 0.00 0.00 0.00 48 1020.1
20260503183007 77 207 6.0 18.0 0.00 0.00 0.00 47 1020.3
20260503181513 77 198 3.0 13.0 0.00 0.00 0.00 47 1020.5
20260503180027 77 174 7.0 14.0 0.00 0.00 0.00 47 1020.8
20260503174523 76 180 7.0 12.0 0.00 0.00 0.00 47 1021.1
20260503173022 76 185 7.0 13.0 0.00 0.00 0.00 51 1021.3
20260503171516 75 206 7.0 14.0 0.00 0.00 0.00 53 1021.5
20260503081510 56 231 1.0 4.0 0.00 0.00 0.00 71 1020.0
20260503071548 56 229 0.0 4.0 0.00 0.00 0.00 72 1020.4
20260503054526 58 211 2.0 4.0 0.00 0.00 0.00 71 1020.5
20260503053014 57 178 1.0 3.0 0.00 0.00 0.00 72 1020.4
20260503051529 57 178 1.0 3.0 0.00 0.00 0.00 72 1020.3
20260503050026 58 178 1.0 4.0 0.00 0.00 0.00 71 1020.2
20260503044526 59 211 1.0 3.0 0.00 0.00 0.00 70 1020.3
20260503043030 59 211 0.0 5.0 0.00 0.00 0.00 71 1020.2
20260503041527 59 202 1.0 3.0 0.00 0.00 0.00 70 1020.3
20260503040023 59 202 0.0 3.0 0.00 0.00 0.00 70 1020.3
20260503034526 59 202 0.0 3.0 0.00 0.00 0.00 71 1020.4
20260503033030 58 190 0.0 3.0 0.00 0.00 0.00 73 1020.4
20260503031535 58 123 0.0 0.0 0.00 0.00 0.00 72 1020.2
20260503030026 59 123 0.0 0.0 0.00 0.00 0.00 71 1020.1
20260503024525 59 123 0.0 3.0 0.00 0.00 0.00 70 1020.0
20260503023028 60 333 0.0 0.0 0.00 0.00 0.00 72 1019.8
20260503021534 61 333 0.0 2.0 0.00 0.00 0.00 70 1019.7
20260503020030 62 333 0.0 0.0 0.00 0.00 0.00 69 1019.7
20260503014521 63 333 0.0 0.0 0.00 0.00 0.00 67 1019.5
20260503013033 66 333 0.0 0.0 0.00 0.00 0.00 65 1019.4
20260503011530 68 333 0.0 0.0 0.00 0.00 0.00 61 1019.3
20260503010032 71 333 0.0 1.0 0.00 0.00 0.00 59 1019.2
20260503004536 74 333 0.0 0.0 0.00 0.00 0.00 53 1019.1
20260503003030 75 333 0.0 0.0 0.00 0.00 0.00 42 1019.0
20260503001524 75 333 0.0 2.0 0.00 0.00 0.00 44 1019.0
20260503000028 74 5 0.0 2.0 0.00 0.00 0.00 46 1019.1
20260502234534 74 26 1.0 5.0 0.00 0.00 0.00 43 1019.0
20260502233021 74 350 4.0 6.0 0.00 0.00 0.00 43 1019.1
20260502231503 74 67 2.0 5.0 0.00 0.00 0.00 41 1019.1
20260502230009 75 17 3.0 9.0 0.00 0.00 0.00 40 1019.1
20260502224509 75 333 4.0 8.0 0.00 0.00 0.00 42 1019.2
20260502223015 74 141 2.0 8.0 0.00 0.00 0.00 41 1019.3
20260502221523 74 325 5.0 9.0 0.00 0.00 0.00 41 1019.5
20260502220011 75 313 3.0 7.0 0.00 0.00 0.00 40 1019.5
20260502214510 74 277 1.0 6.0 0.00 0.00 0.00 42 1019.6
20260502213032 74 41 3.0 9.0 0.00 0.00 0.00 43 1019.7
20260502211522 74 350 6.0 10.0 0.00 0.00 0.00 43 1019.9
20260502210023 74 342 1.0 10.0 0.00 0.00 0.00 43 1020.1
20260502204507 74 209 1.0 12.0 0.00 0.00 0.00 42 1020.2
20260502203028 74 5 4.0 9.0 0.00 0.00 0.00 47 1020.2
20260502201532 74 316 4.0 9.0 0.00 0.00 0.00 45 1020.3